Theta_e
340 335 334 335 345 346 347 346 349 347 345 346 348 344 347 346 342 340 341 342 343 343 343 343 344 344 343 343 342 344 346 348 349 350 348 349 349 351 353 352 353 354 347 344
335 334 335 345 346 345 344 347 348 347 344 344 348 349 341 341 343 343 340 342 343 343 344 343 343 343 343 343 343 343 346 349 349 348 347 346 348 350 348 349 349 349 347 346
334 333 335 344 344 344 344 346 348 348 344 347 348 346 343 343 341 345 344 342 342 343 344 343 343 344 344 344 345 347 348 349 351 349 350 349 350 349 350 342 347 347 346 347
330 333 334 335 344 343 342 344 347 348 347 350 345 359 349 343 347 345 347 344 343 343 343 345 346 346 348 347 351 350 351 351 351 350 347 351 351 351 349 350 347 349 346 345
326 328 330 332 332 337 336 343 345 346 346 346 345 343 354 347 346 345 346 348 345 343 342 346 347 347 347 349 349 349 348 353 352 346 351 350 349 351 351 351 348 337 344 347
325 329 328 329 332 333 334 333 335 338 336 338 340 347 345 345 344 340 346 347 347 344 342 343 347 347 347 347 347 347 349 348 346 346 353 352 350 345 352 349 348 346 348 349
324 325 326 327 328 329 332 329 331 335 335 341 344 350 347 343 342 340 337 345 347 346 343 343 346 347 347 348 347 348 349 349 347 345 352 352 351 347 351 348 350 350 348 345
322 323 324 326 327 330 328 327 329 336 336 339 340 349 346 342 340 340 338 343 344 346 344 343 344 347 347 348 348 349 349 349 349 344 347 350 348 346 348 349 348 349 347 343
321 323 325 325 326 328 327 326 327 328 329 333 342 343 343 343 343 344 343 342 343 348 344 343 343 346 347 347 348 348 348 348 348 348 344 348 348 348 349 350 348 349 347 343
323 323 325 327 326 327 325 326 324 326 330 335 338 344 344 343 343 341 340 342 342 347 346 344 344 346 347 346 347 346 346 346 347 348 348 344 346 348 348 350 350 349 345 338
323 322 325 328 325 323 324 323 323 322 323 327 337 339 340 341 340 340 339 341 344 349 348 344 344 345 346 345 346 345 347 348 348 348 347 344 348 348 353 346 348 348 343 337
326 324 324 326 326 325 324 322 321 320 323 324 326 333 336 339 336 337 338 341 346 349 348 345 345 344 346 345 345 345 345 347 348 347 344 345 347 348 348 349 349 346 344 345
327 325 324 325 325 327 324 323 322 320 320 320 326 332 332 336 337 336 335 339 346 348 348 346 345 344 345 344 345 346 346 347 346 344 346 350 350 353 349 352 350 350 349 347
330 326 324 324 327 328 325 325 324 321 320 321 322 325 334 335 332 333 334 343 345 348 348 347 345 344 343 343 344 346 346 346 341 343 348 354 353 352 353 353 351 354 352 353
326 326 329 328 330 331 331 327 325 322 321 321 323 325 333 332 331 333 337 343 348 348 348 347 345 344 344 343 344 345 345 344 343 348 350 354 354 352 352 355 355 356 356 355
328 327 332 333 332 332 333 330 326 326 325 325 325 329 330 333 333 334 342 342 344 349 348 348 347 345 344 344 344 344 343 344 346 347 351 349 355 356 353 354 357 355 356 354
333 329 329 330 332 332 332 330 329 327 325 324 325 326 331 334 336 336 338 343 341 348 348 347 348 346 345 344 343 343 344 345 348 349 350 342 341 357 356 353 355 355 356 351
332 334 330 331 332 334 331 330 328 327 327 324 325 330 331 337 348 349 344 345 343 338 346 347 348 347 345 344 343 343 345 346 349 351 349 350 350 347 356 355 353 353 353 356
335 340 340 339 334 333 333 333 331 326 328 328 327 336 340 344 347 346 345 345 347 349 343 348 347 346 345 342 343 344 345 346 348 351 351 351 351 347 355 355 352 351 350 350
337 338 341 341 341 343 339 336 336 330 334 336 339 339 342 342 345 343 342 337 336 346 349 352 347 348 344 342 343 345 346 347 348 350 351 349 349 348 350 347 348 352 350 354
338 338 339 342 340 339 339 337 336 336 347 346 345 345 347 345 339 337 334 347 344 337 348 349 349 346 346 345 344 345 346 347 347 348 352 351 350 347 347 344 346 351 353 358
334 340 341 338 342 338 337 335 347 347 346 347 346 345 345 345 345 340 351 355 352 338 349 351 350 346 346 347 347 348 349 349 349 350 353 353 350 346 346 346 348 349 354 358
332 331 335 334 335 334 335 336 341 345 346 347 347 347 345 345 345 347 355 359 359 355 350 353 351 349 349 351 348 350 351 353 354 356 357 355 351 351 349 348 347 352 359 358
337 337 341 339 339 338 337 337 341 345 345 346 347 348 347 346 347 356 360 361 357 352 349 352 352 353 352 354 353 355 355 356 359 360 360 359 356 354 354 350 352 356 361 359
336 336 340 341 341 342 340 339 344 343 337 340 345 347 348 347 349 357 361 359 356 350 349 352 352 357 358 360 362 362 360 359 360 360 361 360 357 356 356 359 360 363 360 357
336 339 341 344 341 338 341 338 343 341 339 342 343 346 349 348 350 358 363 363 357 352 353 352 354 358 359 359 359 359 359 359 357 356 358 357 357 355 356 359 363 363 360 359
Wind_Speed
19 5 7 11 14 15 11 9 7 8 14 18 18 7 2 7 20 22 25 28 26 27 24 28 24 24 23 25 28 21 18 25 19 16 14 11 12 9 7 8 8 7 4 6
8 11 15 15 22 19 18 11 5 9 23 14 16 2 23 29 23 17 26 30 29 27 27 29 26 23 28 27 26 25 21 21 19 12 6 11 10 13 10 9 7 8 5 6
11 13 16 16 11 9 14 21 20 15 21 17 11 1 17 16 28 26 28 34 34 32 29 32 29 27 29 28 27 22 25 22 20 14 14 13 14 12 12 8 11 7 7 7
8 18 18 9 17 13 11 25 28 23 13 7 22 6 13 17 15 15 31 36 36 36 32 35 32 28 30 30 25 22 26 24 23 17 16 15 10 10 10 7 10 9 8 7
13 14 13 14 11 14 7 24 26 32 13 6 7 6 5 7 15 8 12 33 40 40 39 38 36 33 32 32 29 25 24 26 22 20 18 16 13 9 10 7 2 19 11 11
12 23 8 9 10 6 4 6 6 6 4 5 5 6 5 3 8 7 11 21 25 42 42 40 39 34 38 37 34 28 24 23 23 22 22 19 16 16 9 6 7 2 7 8
12 12 10 11 8 8 4 5 4 5 4 2 12 8 6 11 11 11 11 19 20 45 42 41 42 40 40 41 37 33 29 24 21 22 26 21 15 16 12 7 4 6 5 4
7 10 10 13 7 5 8 8 5 6 6 4 8 8 6 18 26 22 23 17 19 42 42 43 42 43 42 41 40 36 33 28 24 23 24 25 18 17 12 9 7 8 8 6
6 12 11 14 16 9 9 6 8 4 8 2 5 5 4 8 18 21 26 17 31 31 42 46 41 41 44 42 43 39 35 32 27 23 24 25 22 19 14 14 9 11 8 11
13 7 10 13 12 8 10 8 4 3 5 5 6 7 6 10 20 15 14 26 44 34 40 43 41 41 43 41 41 38 34 31 28 24 22 24 23 19 17 15 13 6 2 6
11 6 17 5 6 12 3 5 5 2 4 3 1 5 8 9 7 3 14 25 37 41 39 42 43 38 39 41 42 39 35 31 28 24 21 23 23 21 21 16 10 10 6 6
11 7 7 11 8 11 9 11 10 5 9 4 5 4 8 13 12 22 40 23 38 42 41 43 43 40 40 42 40 40 34 29 25 19 21 20 20 21 25 21 12 6 9 8
6 3 4 10 8 3 9 8 8 8 5 8 3 5 6 10 18 23 9 27 38 40 39 42 43 42 39 42 40 39 34 29 21 22 23 18 20 19 22 25 17 9 6 8
8 3 8 7 9 6 8 9 9 7 3 6 6 5 13 19 11 6 10 23 39 44 42 41 44 44 42 44 40 37 32 25 22 25 23 22 18 19 19 18 19 14 12 11
4 6 5 9 7 9 12 11 12 10 10 7 8 9 17 8 8 5 16 25 34 36 40 37 43 44 43 45 42 38 32 28 23 25 26 25 21 17 22 20 18 20 16 14
7 5 5 7 9 14 11 7 12 11 9 6 6 2 10 18 14 15 24 31 23 34 40 39 42 47 44 46 44 40 35 32 29 27 26 22 23 21 20 25 22 20 22 20
6 3 3 7 8 10 8 8 5 6 9 9 6 8 4 5 8 14 22 33 31 33 40 40 43 47 45 45 43 41 38 36 35 33 31 27 15 29 25 25 26 23 21 18
11 11 4 6 6 6 10 7 10 8 10 10 7 4 6 13 22 26 16 18 11 25 30 39 41 45 46 43 41 41 42 40 41 39 34 33 31 27 29 28 28 25 22 20
4 2 3 2 6 7 10 10 6 7 5 8 7 8 17 20 27 16 15 12 13 10 25 36 39 41 47 43 42 43 45 44 44 42 38 36 35 33 31 30 29 28 25 23
12 6 5 5 2 3 3 7 17 4 2 4 14 10 12 20 6 3 7 7 3 9 8 17 36 33 41 44 42 43 47 48 46 42 39 36 37 36 33 28 27 29 24 24
3 4 5 4 2 7 6 13 14 7 6 14 25 23 21 6 5 2 3 4 5 5 3 7 34 36 39 40 41 42 44 45 43 40 37 38 38 37 32 26 25 26 24 25
7 5 2 2 3 7 6 27 4 5 12 20 20 18 15 10 4 4 5 4 8 2 2 3 31 37 33 39 41 42 42 38 36 35 35 38 39 39 33 26 27 25 24 27
9 6 6 11 8 12 7 16 21 14 15 11 15 14 10 7 10 9 4 4 5 4 2 8 20 25 29 35 42 42 40 34 30 28 29 33 36 36 33 30 32 29 29 30
14 17 4 6 4 9 31 33 14 20 13 5 7 11 10 7 3 14 7 3 3 2 3 5 7 16 27 33 37 38 33 28 25 24 27 30 33 33 32 32 33 31 33 35
6 9 10 6 15 25 10 26 28 28 18 10 7 9 10 8 6 11 12 9 6 6 6 7 9 15 24 27 27 24 24 22 21 21 24 28 31 32 33 32 34 34 35 37
6 4 4 3 18 17 25 16 25 29 30 26 16 15 10 11 10 16 15 14 11 9 7 9 7 14 19 19 19 20 20 21 20 22 25 28 30 32 38 38 37 36 35 35
Wind_Direction
245 234 229 215 176 171 170 176 228 335 325 338 297 290 360 233 179 173 180 183 191 190 195 189 183 189 185 187 189 179 187 202 192 177 180 195 208 211 201 206 222 219 211 189
250 233 242 146 159 180 186 162 102 7 333 304 291 28 32 322 299 286 183 186 189 193 196 187 183 189 188 189 191 185 193 197 205 176 212 194 202 204 217 222 210 203 228 208
214 241 241 173 167 198 186 174 172 155 214 265 246 197 137 246 263 273 211 196 191 190 192 182 182 188 195 194 190 193 194 200 201 183 198 216 225 211 231 255 219 222 214 213
232 239 254 220 196 210 237 184 186 213 186 198 198 138 222 197 250 240 200 191 191 188 187 184 181 188 198 197 194 185 194 208 207 211 191 218 217 211 240 272 211 193 202 225
243 248 256 260 256 189 241 154 195 179 184 169 191 107 158 199 227 221 206 194 188 189 186 185 184 188 199 198 199 204 206 205 208 208 199 212 225 217 235 275 289 287 201 202
250 265 248 250 267 277 289 317 287 236 222 283 208 111 298 246 212 240 192 211 195 185 186 189 192 189 196 204 202 204 206 209 212 203 196 205 216 207 231 224 247 28 213 217
275 266 274 275 296 281 231 311 316 336 343 134 84 66 276 263 245 233 217 226 229 186 185 188 190 192 196 200 201 201 203 207 205 195 197 206 200 199 229 233 206 205 208 248
225 280 255 260 235 205 227 201 167 236 256 145 116 156 231 224 237 236 249 259 262 181 183 188 193 195 195 198 200 204 203 207 206 204 197 204 197 197 204 220 220 212 227 148
239 242 243 215 230 178 261 279 241 235 276 31 146 235 320 203 244 257 250 244 252 185 183 189 191 195 193 197 201 207 207 207 209 211 205 202 204 200 203 210 222 239 267 243
248 283 269 258 209 227 170 227 306 316 249 267 210 174 186 199 238 227 247 245 244 208 186 186 189 194 195 197 202 207 210 209 209 212 212 206 203 194 198 206 219 228 232 306
224 195 274 327 170 193 169 221 263 201 172 187 228 272 203 188 258 209 283 188 225 185 186 183 188 188 195 194 199 201 206 205 204 209 211 209 203 191 203 213 211 226 229 129
212 193 250 247 202 175 187 196 197 141 283 222 177 224 190 174 210 164 215 229 181 180 184 182 185 186 189 189 197 200 201 198 202 214 207 205 201 196 198 211 199 215 196 171
211 194 287 318 317 204 190 224 204 208 200 241 173 239 187 172 210 216 222 185 173 176 180 179 180 182 185 187 195 194 195 196 200 208 207 201 203 197 190 205 213 192 180 193
98 181 178 220 228 186 204 207 223 196 151 234 224 240 164 200 210 315 305 171 169 173 180 176 178 181 185 188 196 194 195 199 201 202 203 206 209 209 203 190 206 203 204 220
134 201 247 247 278 274 253 203 207 202 222 174 250 233 178 203 218 160 111 154 159 167 175 173 177 183 188 189 195 199 201 203 199 198 202 208 212 209 208 209 199 208 212 227
306 247 248 289 305 295 291 225 204 202 215 238 236 251 187 209 201 147 138 155 154 173 175 179 179 185 189 192 196 201 205 206 199 197 195 200 212 217 209 205 210 206 214 228
289 250 232 264 277 291 310 205 239 222 199 188 218 227 186 117 113 120 146 162 167 174 182 183 184 187 192 196 203 205 207 204 201 199 199 197 204 213 219 210 207 212 214 216
279 304 197 237 281 278 251 246 199 218 195 206 223 200 127 141 86 80 102 82 169 187 187 189 189 190 195 199 206 209 206 207 204 203 206 210 217 214 217 212 212 215 216 213
214 114 336 103 246 251 284 286 217 175 243 171 169 107 61 103 85 62 72 95 74 162 198 192 193 193 195 199 205 209 207 209 208 206 207 211 215 212 214 217 216 216 214 212
88 99 113 17 69 284 355 326 345 129 40 110 104 97 86 89 74 256 55 44 72 124 137 185 189 193 201 203 207 207 209 208 210 213 213 214 213 214 213 218 218 219 216 217
20 340 144 208 209 278 306 319 9 94 206 66 79 87 99 100 161 105 164 42 342 247 182 207 189 194 206 204 208 207 210 213 217 220 217 215 218 221 219 222 219 213 214 208
177 129 305 260 105 255 350 342 66 190 86 96 94 95 104 123 171 161 116 5 341 7 25 183 191 192 208 209 206 207 208 214 216 220 221 218 219 219 218 220 213 206 207 201
253 229 199 202 209 196 65 252 271 108 96 94 118 118 115 135 183 203 158 39 43 7 92 73 181 185 208 214 212 209 210 211 214 217 221 219 219 220 219 210 207 202 202 199
349 27 334 6 293 174 165 226 178 135 108 129 125 111 134 131 115 153 130 83 74 51 182 122 135 172 194 202 210 212 207 208 212 220 219 217 217 212 211 207 208 205 199 202
283 319 333 280 25 346 191 194 148 158 156 95 214 139 119 129 118 151 129 130 99 126 142 161 173 177 184 191 197 200 205 212 220 227 221 216 215 210 200 205 208 210 207 211
35 12 357 292 338 311 273 210 142 149 165 175 168 126 114 130 106 140 140 127 128 154 128 152 161 172 174 185 196 204 213 218 226 225 215 212 210 203 203 207 206 206 208 214